This demonstration page uses our WeatherBlox Daily Observations layout. Learn more.

Left ArrowRight Arrow

Hourly Observations for October 28, 2015

Temp ( °F °C ) Dew Point ( °F °C ) Humidity (%) Winds ( mph kmh ) Pressure ( in mb ) Visibility ( mi km ) Precip ( " mm )
12:15 am 00:15 Cloudy 48 9 39 4 71 71 NNW 20 31 29.88 1012 10 16 0.00 0.00
12:35 am 00:35 Cloudy 48 9 39 4 71 71 NNW 18 30 29.88 1012 10 16 0.00 0.00
12:55 am 00:55 Cloudy 48 9 39 4 71 71 NNW 16 26 29.88 1012 10 16 0.00 0.00
1:15 am 01:15 Cloudy 48 9 39 4 71 71 NNW 16 26 29.88 1012 10 16 0.00 0.00
1:35 am 01:35 Cloudy 48 9 39 4 71 71 NNW 13 20 29.88 1012 10 16 0.00 0.00
1:55 am 01:55 Mostly Cloudy 46 8 39 4 76 76 NW 10 17 29.88 1012 10 16 0.00 0.00
2:15 am 02:15 Cloudy 46 8 39 4 76 76 NW 12 19 29.88 1012 10 16 0.00 0.00
2:35 am 02:35 Cloudy 48 9 39 4 71 71 NNW 13 20 29.88 1012 10 16 0.00 0.00
2:55 am 02:55 Cloudy 48 9 39 4 71 71 NNW 15 24 29.88 1012 10 16 0.00 0.00
3:15 am 03:15 Mostly Cloudy 48 9 37 3 66 66 NNW 13 20 29.88 1012 10 16 0.00 0.00
3:35 am 03:35 Partly Cloudy 46 8 37 3 71 71 NNW 13 20 29.88 1012 10 16 0.00 0.00
3:55 am 03:55 Mostly Cloudy 46 8 37 3 71 71 NW 12 19 29.88 1012 10 16 0.00 0.00
4:15 am 04:15 Partly Cloudy 46 8 37 3 71 71 NW 10 17 29.88 1012 10 16 0.00 0.00
4:35 am 04:35 Mostly Cloudy 46 8 37 3 71 71 WNW 12 19 29.88 1012 10 16 0.00 0.00
4:55 am 04:55 Cloudy 46 8 37 3 71 71 NW 14 22 29.88 1012 10 16 0.00 0.00
5:15 am 05:15 Cloudy 48 9 37 3 66 66 NNW 16 26 29.88 1012 10 16 0.00 0.00
5:35 am 05:35 Cloudy 46 8 37 3 71 71 NNW 14 22 29.88 1012 10 16 0.00 0.00
5:55 am 05:55 Cloudy 46 8 37 3 71 71 NW 18 30 29.88 1012 10 16 0.00 0.00
6:15 am 06:15 Partly Cloudy 45 7 34 1 66 66 NW 14 22 29.91 1013 10 16 0.00 0.00
6:35 am 06:35 Clear 43 6 34 1 71 71 NW 12 19 29.91 1013 10 16 0.00 0.00
6:55 am 06:55 Clear 43 6 34 1 71 71 NW 10 17 29.91 1013 10 16 0.00 0.00
7:15 am 07:15 Clear 41 5 34 1 76 76 NNW 10 17 29.91 1013 10 16 0.00 0.00
7:35 am 07:35 Clear 41 5 32 0 70 70 NW 13 20 29.91 1013 10 16 0.00 0.00
7:55 am 07:55 Clear 39 4 32 0 75 75 NNW 10 17 29.91 1013 10 16 0.00 0.00
8:15 am 08:15 Sunny 39 4 30 -1 70 70 NNW 14 22 29.91 1013 10 16 0.00 0.00
8:35 am 08:35 Sunny 39 4 30 -1 70 70 NW 15 24 29.91 1013 10 16 0.00 0.00
8:55 am 08:55 Sunny 39 4 30 -1 70 70 WNW 9 15 29.91 1013 10 16 0.00 0.00
9:15 am 09:15 Sunny 39 4 34 1 81 81 WNW 14 22 29.94 1014 10 16 0.00 0.00
9:35 am 09:35 Sunny 41 5 32 0 70 70 WNW 16 26 29.94 1014 10 16 0.00 0.00
9:55 am 09:55 Sunny 43 6 32 0 66 66 NW 15 24 29.94 1014 10 16 0.00 0.00
10:15 am 10:15 Sunny 43 6 30 -1 61 61 NW 12 19 29.91 1013 10 16 0.00 0.00
10:35 am 10:35 Sunny 45 7 30 -1 57 57 NW 16 26 29.91 1013 10 16 0.00 0.00
10:55 am 10:55 Sunny 45 7 30 -1 57 57 NW 12 19 29.91 1013 10 16 0.00 0.00
11:15 am 11:15 Sunny 46 8 30 -1 53 53 NW 15 24 29.88 1012 10 16 0.00 0.00
11:35 am 11:35 Sunny 46 8 32 0 57 57 WNW 10 17 29.88 1012 10 16 0.00 0.00
11:55 am 11:55 Sunny 48 9 30 -1 50 50 WNW 12 19 29.88 1012 10 16 0.00 0.00
12:15 pm 12:15 Sunny 48 9 30 -1 50 50 WNW 14 22 29.88 1012 10 16 0.00 0.00
12:35 pm 12:35 Mostly Sunny 52 11 32 0 47 47 WNW 16 26 29.83 1010 10 16 0.00 0.00
12:55 pm 12:55 Sunny 52 11 30 -1 44 44 WNW 16 26 29.83 1010 10 16 0.00 0.00
1:15 pm 13:15 Mostly Cloudy 54 12 30 -1 41 41 WNW 15 24 29.83 1010 10 16 0.00 0.00
1:35 pm 13:35 Cloudy 54 12 30 -1 41 41 WNW 18 30 29.80 1009 10 16 0.00 0.00
1:55 pm 13:55 Cloudy 54 12 32 0 44 44 W 15 24 29.80 1009 10 16 0.00 0.00
2:15 pm 14:15 Cloudy 54 12 32 0 44 44 W 14 22 29.80 1009 10 16 0.00 0.00
2:35 pm 14:35 Cloudy 55 13 34 1 44 44 WNW 15 24 29.77 1008 10 16 0.00 0.00
2:55 pm 14:55 Cloudy 55 13 32 0 41 41 WNW 15 24 29.77 1008 10 16 0.00 0.00
3:15 pm 15:15 Mostly Cloudy 55 13 30 -1 38 38 NW 16 26 29.77 1008 10 16 0.00 0.00
3:35 pm 15:35 Mostly Cloudy 55 13 28 -2 36 36 NW 15 24 29.77 1008 10 16 0.00 0.00
3:55 pm 15:55 Mostly Cloudy 57 14 30 -1 36 36 NNW 16 26 29.71 1006 10 16 0.00 0.00
4:15 pm 16:15 Partly Cloudy 55 13 28 -2 36 36 NW 15 24 29.74 1007 10 16 0.00 0.00
4:35 pm 16:35 Sunny 55 13 28 -2 36 36 NW 17 28 29.74 1007 10 16 0.00 0.00
4:55 pm 16:55 Partly Cloudy 57 14 28 -2 33 33 NNW 17 28 29.71 1006 10 16 0.00 0.00
5:15 pm 17:15 Mostly Sunny 55 13 28 -2 36 36 N 15 24 29.77 1008 10 16 0.00 0.00
5:35 pm 17:35 Sunny 54 12 28 -2 38 38 N 16 26 29.77 1008 10 16 0.00 0.00
5:55 pm 17:55 Sunny 54 12 28 -2 38 38 NNW 12 19 29.77 1008 10 16 0.00 0.00
6:15 pm 18:15 Sunny 52 11 28 -2 41 41 NNW 9 15 29.77 1008 10 16 0.00 0.00
6:35 pm 18:35 Sunny 50 10 27 -3 40 40 N 10 17 29.77 1008 10 16 0.00 0.00
6:55 pm 18:55 Clear 48 9 27 -3 43 43 N 9 15 29.80 1009 10 16 0.00 0.00
7:15 pm 19:15 Clear 46 8 27 -3 46 46 N 9 15 29.80 1009 10 16 0.00 0.00
7:35 pm 19:35 Clear 45 7 25 -4 46 46 NNW 8 13 29.83 1010 10 16 0.00 0.00
7:55 pm 19:55 Clear 45 7 25 -4 46 46 N 12 19 29.83 1010 10 16 0.00 0.00
8:15 pm 20:15 Clear 45 7 21 -6 39 39 N 15 24 29.83 1010 10 16 0.00 0.00
8:35 pm 20:35 Clear 43 6 19 -7 39 39 N 15 24 29.88 1012 10 16 0.00 0.00
8:55 pm 20:55 Clear 43 6 18 -8 36 36 N 14 22 29.88 1012 10 16 0.00 0.00
9:15 pm 21:15 Clear 39 4 18 -8 42 42 N 14 22 29.88 1012 10 16 0.00 0.00
9:35 pm 21:35 Clear 39 4 18 -8 42 42 N 12 19 29.91 1013 10 16 0.00 0.00
9:55 pm 21:55 Clear 37 3 18 -8 45 45 N 10 17 29.94 1014 10 16 0.00 0.00
10:15 pm 22:15 Clear 37 3 18 -8 45 45 NNW 7 11 29.94 1014 10 16 0.00 0.00
10:35 pm 22:35 Clear 36 2 18 -8 48 48 NNW 9 15 29.94 1014 10 16 0.00 0.00
10:55 pm 22:55 Clear 36 2 18 -8 48 48 NW 8 13 29.94 1014 10 16 0.00 0.00
11:15 pm 23:15 Clear 36 2 18 -8 48 48 NNW 8 13 29.94 1014 10 16 0.00 0.00
11:35 pm 23:35 Clear 36 2 18 -8 48 48 NNW 10 17 29.94 1014 10 16 0.00 0.00
11:55 pm 23:55 Clear 34 1 18 -8 51 51 NW 8 13 29.94 1014 10 16 0.00 0.00

Powered by AerisWeather